Location: Berlin
(52.5171°N, 13.3759°E)
Time: 05:07:04
(UTC+01:00)

Tiangong 2 - Visible Passes

Search period start: 18 January 2018 00:00
Search period end: 28 January 2018 00:00
Orbit: 384 x 390 km, 42.8° (Epoch: 17 January)

Date Brightness Start Highest point End Pass type
(mag) Time Alt. Az. Time Alt. Az. Time Alt. Az.
19 Jan 4.0 07:15:24 10° SSW 07:17:00 13° S 07:18:37 10° SE visible
20 Jan 4.1 06:17:36 10° S 06:18:35 11° SSE 06:19:32 10° SSE visible
21 Jan 3.8 06:54:14 10° SSW 06:56:05 15° S 06:57:57 10° SE visible
22 Jan 3.7 05:56:27 11° SSW 05:57:37 13° S 05:59:15 10° SE visible
23 Jan 3.7 06:33:16 10° SW 06:35:10 15° S 06:37:03 10° SE visible
24 Jan 3.6 05:36:47 15° S 05:36:47 15° S 05:38:31 10° SE visible
24 Jan 3.8 07:11:24 10° SW 07:12:40 12° SSW 07:13:55 10° S visible
25 Jan 3.5 06:13:01 12° SSW 06:14:11 14° S 06:15:53 10° SSE visible
26 Jan 4.0 05:16:59 12° SSE 05:16:59 12° SSE 05:17:33 10° SSE visible
27 Jan 3.7 05:53:12 12° SSW 05:53:12 12° SSW 05:54:20 10° S visible
